| time (UTC) | temp F | wind direction | speed MPH | gust MPH | rain 1hr in | rain 24hr in | rain mn in | humidity % | barometer mb |
| 20260505003055 | 53 | 42 | 15.0 | 25.0 | 0.00 | 0.00 | 0.00 | 28 | 1012.9 |
| 20260505001549 | 53 | 331 | 12.0 | 24.0 | 0.00 | 0.00 | 0.00 | 26 | 1012.8 |
| 20260505000049 | 54 | 360 | 15.0 | 26.0 | 0.00 | 0.00 | 0.00 | 25 | 1012.7 |
| 20260504234547 | 54 | 306 | 13.0 | 30.0 | 0.00 | 0.00 | 0.00 | 24 | 1012.6 |
| 20260504233102 | 55 | 342 | 13.0 | 25.0 | 0.00 | 0.00 | 0.00 | 24 | 1012.5 |
| 20260504231548 | 54 | 21 | 18.0 | 27.0 | 0.00 | 0.00 | 0.00 | 25 | 1012.4 |
| 20260504230053 | 55 | 343 | 16.0 | 27.0 | 0.00 | 0.00 | 0.00 | 25 | 1012.2 |
| 20260504224542 | 55 | 300 | 15.0 | 26.0 | 0.00 | 0.00 | 0.00 | 26 | 1012.2 |
| 20260504223041 | 54 | 355 | 12.0 | 23.0 | 0.00 | 0.00 | 0.00 | 25 | 1012.1 |
| 20260504221540 | 54 | 336 | 11.0 | 21.0 | 0.00 | 0.00 | 0.00 | 30 | 1012.1 |
| 20260504220039 | 54 | 297 | 9.0 | 19.0 | 0.00 | 0.00 | 0.00 | 29 | 1012.3 |
| 20260504214539 | 52 | 326 | 10.0 | 21.0 | 0.00 | 0.00 | 0.00 | 31 | 1012.4 |
| 20260504213038 | 52 | 312 | 13.0 | 25.0 | 0.00 | 0.00 | 0.00 | 32 | 1012.5 |
| 20260504211539 | 54 | 340 | 13.0 | 21.0 | 0.00 | 0.00 | 0.00 | 30 | 1012.5 |
| 20260504210042 | 54 | 335 | 13.0 | 20.0 | 0.00 | 0.00 | 0.00 | 31 | 1012.5 |
| 20260504204541 | 53 | 307 | 14.0 | 22.0 | 0.00 | 0.00 | 0.00 | 33 | 1012.5 |
| 20260504203051 | 54 | 42 | 11.0 | 22.0 | 0.00 | 0.00 | 0.00 | 32 | 1012.4 |
| 20260504201536 | 52 | 281 | 12.0 | 25.0 | 0.00 | 0.00 | 0.00 | 34 | 1012.5 |
| 20260504200032 | 53 | 19 | 16.0 | 25.0 | 0.00 | 0.00 | 0.00 | 34 | 1012.4 |
| 20260504194534 | 53 | 333 | 11.0 | 24.0 | 0.00 | 0.00 | 0.00 | 35 | 1012.3 |
| 20260504193030 | 54 | 315 | 10.0 | 20.0 | 0.00 | 0.00 | 0.00 | 35 | 1012.2 |
| 20260504191529 | 53 | 303 | 10.0 | 23.0 | 0.00 | 0.00 | 0.00 | 35 | 1012.2 |
| 20260504190029 | 53 | 9 | 14.0 | 25.0 | 0.00 | 0.00 | 0.00 | 35 | 1012.2 |
| 20260504184533 | 53 | 325 | 15.0 | 22.0 | 0.00 | 0.00 | 0.00 | 35 | 1012.1 |
| 20260504183032 | 53 | 347 | 17.0 | 25.0 | 0.00 | 0.00 | 0.00 | 36 | 1012.0 |
| 20260504181526 | 53 | 343 | 13.0 | 22.0 | 0.00 | 0.00 | 0.00 | 36 | 1012.0 |
| 20260504180025 | 53 | 307 | 10.0 | 29.0 | 0.00 | 0.00 | 0.00 | 37 | 1012.0 |
| 20260504174525 | 53 | 315 | 12.0 | 21.0 | 0.00 | 0.00 | 0.00 | 38 | 1012.0 |
| 20260504173024 | 53 | 349 | 10.0 | 21.0 | 0.00 | 0.00 | 0.00 | 38 | 1011.8 |
| 20260504171523 | 52 | 342 | 9.0 | 19.0 | 0.00 | 0.00 | 0.00 | 41 | 1011.9 |
| 20260504081552 | 48 | 78 | 10.0 | 18.0 | 0.00 | 0.00 | 0.00 | 59 | 1011.4 |
| 20260504050014 | 55 | 36 | 10.0 | 17.0 | 0.00 | 0.00 | 0.00 | 38 | 1007.6 |
| 20260504044516 | 55 | 29 | 11.0 | 20.0 | 0.00 | 0.00 | 0.00 | 37 | 1007.1 |
| 20260504043014 | 56 | 46 | 13.0 | 27.0 | 0.00 | 0.00 | 0.00 | 36 | 1006.7 |
| 20260504041514 | 59 | 34 | 11.0 | 24.0 | 0.00 | 0.00 | 0.00 | 37 | 1006.0 |
| 20260504040013 | 59 | 16 | 6.0 | 12.0 | 0.00 | 0.00 | 0.00 | 37 | 1005.2 |
| 20260504034513 | 60 | 360 | 7.0 | 14.0 | 0.00 | 0.00 | 0.00 | 36 | 1004.8 |
| 20260504033014 | 60 | 11 | 7.0 | 14.0 | 0.00 | 0.00 | 0.00 | 36 | 1004.5 |
| 20260504031511 | 61 | 333 | 5.0 | 10.0 | 0.00 | 0.00 | 0.00 | 35 | 1004.4 |
| 20260504030011 | 62 | 73 | 6.0 | 16.0 | 0.00 | 0.00 | 0.00 | 33 | 1004.2 |
| 20260504024510 | 63 | 40 | 9.0 | 16.0 | 0.00 | 0.00 | 0.00 | 32 | 1004.0 |
| 20260504023010 | 64 | 36 | 9.0 | 14.0 | 0.00 | 0.00 | 0.00 | 29 | 1004.0 |
| 20260504021509 | 66 | 13 | 8.0 | 17.0 | 0.00 | 0.00 | 0.00 | 27 | 1003.8 |
| 20260504020009 | 68 | 338 | 10.0 | 16.0 | 0.00 | 0.00 | 0.00 | 25 | 1003.8 |
| 20260504014508 | 70 | 317 | 7.0 | 16.0 | 0.00 | 0.00 | 0.00 | 23 | 1003.7 |
| 20260504013012 | 71 | 346 | 6.0 | 12.0 | 0.00 | 0.00 | 0.00 | 22 | 1003.7 |
| 20260504011507 | 71 | 317 | 7.0 | 13.0 | 0.00 | 0.00 | 0.00 | 21 | 1003.8 |
| 20260504010006 | 72 | 321 | 8.0 | 16.0 | 0.00 | 0.00 | 0.00 | 22 | 1003.9 |
| 20260504004506 | 72 | 332 | 7.0 | 19.0 | 0.00 | 0.00 | 0.00 | 22 | 1004.0 |